Location: *
(58.4167°N, 22.5000°E)
Time: 23:54:40
(UTC+00:00)

COSMOS 2406 - Pass Details

Date: 22 September 2019
Orbit: 842 x 865 km, 71.0° (Epoch: 14 October)

Event Time Altitude Azimuth Distance (km) Brightness Sun altitude
Rises 20:15:11 0° 319° (NW) 3,457 7.7 -26.2°
Reaches altitude 10° 20:17:44 10° 324° (NW) 2,519 6.7 -26.4°
Maximum altitude 20:23:25 54° 42° (NE) 1,048 3.6 -26.9°
Enters shadow 20:24:10 51° 70° (ENE) 1,090 3.6 -26.9°
